#timestamp,LO_Frequency,Hit,StdDev 
1513252815.0,286047000.3,N
1513252815.9,286047000.3,N
1513252835.7,286047001.2,N
1513252855.6,286047000.9,N
1513252875.4,286047001.6,N
1513252895.2,286047002.1,N
1513252915.1,286046996.6,N
1513252916.0,286046996.6,N
1513252935.8,286046998.4,N
1513252955.6,286046998.4,N
1513252975.5,286046996.6,N
1513252995.3,286047004.1,N
1513253015.1,286047005.1,N
1513253035.9,286047003.6,N
1513253055.7,286047003.1,N
1513253075.5,286047004.0,N
1513253095.4,286046999.9,N
1513253115.2,286047000.7,N
1513253135.0,286047004.0,N
1513253135.9,286047004.0,N
1513253155.8,286047005.6,N
1513253175.6,286047005.0,N
1513253195.4,286047007.3,N
1513253215.2,286047003.3,N
1513253235.1,286047003.9,N
1513253236.0,286047003.9,N
1513253255.8,286046998.3,N
1513253275.6,286046998.6,N
1513253295.5,286046998.8,N
1513253315.3,286046998.9,N
1513253335.1,286047000.6,N
1513253355.9,286047003.7,N
1513253375.7,286047004.2,N
1513253395.5,286047005.5,N
1513253415.4,286047001.5,N
1513253435.2,286047004.0,N
1513253455.0,286047000.3,N
1513253455.9,286047000.3,N
1513253475.8,286047003.4,N
1513253495.6,286047005.4,N
1513253515.4,286047007.6,N
1513253535.3,286047005.0,N
1513253555.1,286047004.6,N
1513253556.0,286047004.6,N
1513253575.8,286047009.2,Y
1513253595.7,286047003.7,P
1513253615.5,286047006.0,P
1513253635.3,286047003.4,N
1513253655.2,286047007.0,Y
1513253675.9,286047003.7,P
1513253695.7,286047005.3,P
1513253715.6,286047003.5,P
1513253735.4,286047005.9,Y
1513253755.2,286047002.3,P
1513253775.1,286047003.5,P
1513253776.0,286047003.5,P
1513253795.8,286047004.7,Y
1513253815.6,286047002.1,P
1513253835.5,286047000.1,N
1513253855.3,286047000.3,N
1513253875.1,286047005.9,Y
1513253895.9,286047003.3,P
1513253915.7,286047005.2,P
1513253935.5,286047009.5,P
1513253955.4,286047006.9,N
1513253975.2,286047012.3,Y
1513253995.0,286047008.1,P
1513253995.9,286047008.1,P
1513254015.8,286047009.6,P
1513254035.6,286047007.8,Y
1513254055.4,286046996.7,P
1513254075.3,286046993.9,N
1513254095.1,286046994.7,N
1513254096.0,286046994.7,N
1513254115.8,286046989.9,N
1513254135.7,286046990.0,N
1513254155.5,286046988.6,N
1513254175.3,286046995.8,N
1513254195.1,286046999.2,N
1513254215.9,286047000.4,N
1513254235.7,286046996.7,N
1513254255.5,286046996.1,N
1513254275.4,286046997.6,N
1513254295.2,286046997.6,N
1513254315.0,286046997.6,N
1513254315.9,286046997.6,N
1513254335.8,286046997.2,N
1513254355.6,286046999.7,N
1513254375.4,286046999.7,N
1513254395.3,286046999.7,N
1513254415.1,286047004.4,N
1513254416.0,286047004.4,N
1513254435.8,286046999.0,N
1513254455.7,286046996.3,N
1513254475.5,286046991.7,N
1513254495.3,286046990.3,N
1513254515.2,286046986.5,Y
1513254535.9,286046988.0,P
1513254555.7,286046988.3,N
1513254575.5,286046985.9,P
1513254595.4,286046985.5,Y
1513254615.2,286046995.1,P
1513254635.0,286046994.1,N
1513254636.0,286046994.1,N
1513254655.8,286046994.7,N
1513254675.6,286046991.0,Y
1513254695.5,286046993.8,P
1513254715.3,286046992.5,P
1513254735.1,286046991.1,P
1513254755.9,286046989.1,Y
1513254775.7,286047000.5,P
1513254795.5,286047000.7,N
1513254815.3,286046999.3,N
1513254835.2,286046997.4,N
1513254855.0,286046999.2,N
1513254855.9,286046999.2,N
1513254875.7,286047000.4,N
1513254895.6,286047004.0,N
1513254915.4,286047005.6,N
1513254935.2,286047005.9,N
1513254955.1,286047007.1,N
1513254956.0,286047007.1,N
1513254975.8,286047008.6,N
1513254995.6,286047008.6,N
1513255015.5,286047006.5,N
1513255035.3,286047010.6,N
1513255055.1,286047011.9,N
1513255075.8,286047008.2,N
1513255095.7,286047010.1,N
1513255115.5,286047007.6,N
1513255135.3,286047007.4,N
1513255155.2,286047003.8,N
1513255175.9,286047000.0,N
1513255195.7,286046998.8,N
1513255215.6,286046996.6,N
1513255235.4,286046999.6,N
1513255255.2,286047000.5,N
1513255275.1,286047000.2,N
1513255276.0,286047000.2,N
1513255295.8,286046998.4,N
1513255315.6,286047006.0,N
1513255335.5,286047004.8,N
1513255355.3,286047006.9,N
1513255375.1,286047006.6,N
1513255395.8,286047010.4,N
1513255415.7,286047011.4,N
1513255435.5,286047010.5,N
1513255455.3,286047008.2,N
1513255475.2,286047007.6,N
1513255495.0,286047005.5,N
1513255495.9,286047005.5,N
1513255515.7,286047006.8,N
1513255535.6,286047010.2,N
1513255555.4,286047009.7,N
1513255575.2,286047014.6,Y
1513255595.1,286047007.3,P
1513255596.0,286047007.3,P
1513255615.8,286047006.9,P
1513255635.6,286047006.2,Y
1513255655.5,286047004.4,P
1513255675.3,286047001.5,N
1513255695.1,286047003.7,N
1513255715.9,286047005.9,Y
1513255735.7,286047000.1,P
1513255755.5,286046998.3,N
1513255775.4,286046997.3,N
1513255795.2,286046997.5,N
1513255815.0,286046996.2,N
1513255815.9,286046996.2,N
1513255835.8,286046996.3,N
1513255855.6,286046995.0,N
1513255875.4,286046993.0,N
1513255895.3,286046991.0,Y
1513255915.1,286046997.2,P
1513255916.0,286046997.2,P
1513255935.8,286046996.5,P
1513255955.7,286046998.6,Y
1513255975.5,286047004.3,P
1513255995.3,286047002.9,N
1513256015.2,286047006.0,N
1513256035.9,286047004.1,N
1513256055.7,286047005.9,N
1513256075.6,286047003.8,N
1513256095.4,286047004.7,N
1513256115.2,286047001.8,N
1513256135.0,286047002.5,N
1513256136.0,286047002.5,N
1513256155.8,286047002.4,N
1513256175.6,286047003.3,N
1513256195.4,286047003.2,N
1513256215.3,286047002.2,N
1513256235.1,286046998.5,N
1513256255.8,286046999.4,N
1513256275.7,286046993.7,N
1513256295.5,286046992.0,N
1513256315.3,286046992.5,N
1513256335.2,286046992.9,N
1513256355.9,286046994.6,N
1513256375.7,286046998.2,N
1513256395.6,286047000.3,N
